• en France
  • Liste des pays
  • À 7 jours
  • Température de l'eau
  • Carte satellitaire
  • Carte météo
  • Widgets météo
  • user-avatar
    Se connecter

    Météo par heure à Kalinowa

    Ce jour, 23 Octobre, Mardi

    Heure Température Précipitation Vent Pression Humidité
    00:00 +5°C° 0 mm 4 m/s 759 mmHg 85%
    01:00 +4°C° 0 mm 4 m/s 758 mmHg 87%
    02:00 +4°C° 0 mm 4 m/s 758 mmHg 87%
    03:00 +4°C° 0 mm 4 m/s 757 mmHg 86%
    04:00 +3°C° 0 mm 5 m/s 756 mmHg 86%
    05:00 +3°C° 0 mm 6 m/s 756 mmHg 83%
    06:00 +3°C° 0 mm 6 m/s 755 mmHg 81%
    07:00 +4°C° 0 mm 7 m/s 754 mmHg 79%
    08:00 +4°C° 0.2 mm 8 m/s 752 mmHg 76%
    09:00 +5°C° 0.2 mm 9 m/s 751 mmHg 72%
    10:00 +6°C° 0.2 mm 10 m/s 750 mmHg 68%
    11:00 +6°C° 1.3 mm 11 m/s 748 mmHg 71%
    12:00 +4°C° 1.3 mm 11 m/s 747 mmHg 75%
    13:00 +4°C° 1.3 mm 12 m/s 746 mmHg 78%
    14:00 +5°C° 0.7 mm 12 m/s 745 mmHg 79%
    15:00 +5°C° 0.7 mm 12 m/s 743 mmHg 80%
    16:00 +7°C° 0.7 mm 12 m/s 742 mmHg 81%
    17:00 +7°C° 1.5 mm 11 m/s 741 mmHg 82%
    18:00 +8°C° 1.5 mm 10 m/s 741 mmHg 84%
    19:00 +8°C° 1.5 mm 10 m/s 740 mmHg 85%
    20:00 +8°C° 0.7 mm 10 m/s 740 mmHg 82%
    21:00 +8°C° 0.7 mm 10 m/s 740 mmHg 79%
    22:00 +8°C° 0.7 mm 9 m/s 739 mmHg 76%
    23:00 +7°C° 0.1 mm 10 m/s 739 mmHg 75%

    Demain, 24 Octobre, Mercredi

    Heure Température Précipitation Vent Pression Humidité
    00:00 +7°C° 0.1 mm 10 m/s 739 mmHg 74%
    01:00 +6°C° 0.1 mm 10 m/s 739 mmHg 73%
    02:00 +6°C° 0.1 mm 10 m/s 739 mmHg 70%
    03:00 +5°C° 0.1 mm 10 m/s 739 mmHg 68%
    04:00 +5°C° 0.1 mm 10 m/s 739 mmHg 65%
    05:00 +5°C° 0.2 mm 10 m/s 740 mmHg 65%
    06:00 +3°C° 0.2 mm 9 m/s 741 mmHg 66%
    07:00 +3°C° 0.2 mm 9 m/s 742 mmHg 66%
    08:00 +5°C° 0 mm 10 m/s 742 mmHg 59%
    09:00 +5°C° 0 mm 10 m/s 743 mmHg 52%
    10:00 +6°C° 0 mm 11 m/s 744 mmHg 46%
    11:00 +6°C° 0 mm 11 m/s 744 mmHg 45%
    12:00 +6°C° 0 mm 11 m/s 745 mmHg 44%
    13:00 +7°C° 0 mm 11 m/s 745 mmHg 44%
    14:00 +6°C° 0 mm 10 m/s 746 mmHg 45%
    15:00 +6°C° 0 mm 9 m/s 746 mmHg 47%
    16:00 +6°C° 0 mm 8 m/s 747 mmHg 49%
    17:00 +5°C° 0 mm 8 m/s 747 mmHg 51%
    18:00 +4°C° 0 mm 7 m/s 748 mmHg 54%
    19:00 +4°C° 0 mm 7 m/s 749 mmHg 56%
    20:00 +4°C° 0 mm 6 m/s 749 mmHg 58%
    21:00 +3°C° 0 mm 6 m/s 750 mmHg 60%
    22:00 +3°C° 0 mm 6 m/s 750 mmHg 62%
    23:00 +3°C° 0 mm 6 m/s 750 mmHg 65%

    Après-demain, 25 Octobre, Jeudi

    Heure Température Précipitation Vent Pression Humidité
    00:00 +3°C° 0 mm 6 m/s 750 mmHg 68%
    01:00 +2°C° 0 mm 6 m/s 750 mmHg 71%
    02:00 +2°C° 0 mm 5 m/s 749 mmHg 72%
    03:00 +2°C° 0 mm 5 m/s 749 mmHg 73%
    04:00 +2°C° 0 mm 5 m/s 748 mmHg 74%
    05:00 +3°C° 0.7 mm 5 m/s 748 mmHg 78%
    06:00 +3°C° 0.7 mm 5 m/s 747 mmHg 83%
    07:00 +3°C° 0.7 mm 5 m/s 746 mmHg 88%
    08:00 +5°C° 0.9 mm 6 m/s 745 mmHg 88%
    09:00 +6°C° 0.9 mm 7 m/s 745 mmHg 89%
    10:00 +9°C° 0.9 mm 8 m/s 744 mmHg 89%
    11:00 +8°C° 0.3 mm 9 m/s 744 mmHg 87%
    12:00 +10°C° 0.3 mm 9 m/s 743 mmHg 85%
    13:00 +9°C° 0.3 mm 10 m/s 743 mmHg 82%
    14:00 +9°C° 0.2 mm 10 m/s 743 mmHg 80%
    15:00 +10°C° 0.2 mm 9 m/s 744 mmHg 78%
    16:00 +10°C° 0.2 mm 9 m/s 744 mmHg 76%
    17:00 +9°C° 0.1 mm 8 m/s 744 mmHg 75%
    18:00 +9°C° 0.1 mm 7 m/s 745 mmHg 75%
    19:00 +8°C° 0.1 mm 7 m/s 745 mmHg 74%
    20:00 +7°C° 0 mm 6 m/s 745 mmHg 76%
    21:00 +7°C° 0 mm 6 m/s 746 mmHg 77%
    22:00 +5°C° 0 mm 6 m/s 746 mmHg 78%
    23:00 +5°C° 0 mm 6 m/s 746 mmHg 79%

    26 Octobre, Vendredi

    Heure Température Précipitation Vent Pression Humidité
    00:00 +5°C° 0 mm 6 m/s 746 mmHg 81%
    01:00 +6°C° 0 mm 5 m/s 746 mmHg 82%
    02:00 +5°C° 0 mm 5 m/s 746 mmHg 83%
    03:00 +5°C° 0 mm 5 m/s 746 mmHg 85%
    04:00 +5°C° 0 mm 5 m/s 747 mmHg 86%
    05:00 +5°C° 0 mm 5 m/s 746 mmHg 87%
    06:00 +5°C° 0 mm 4 m/s 746 mmHg 89%
    07:00 +4°C° 0 mm 4 m/s 746 mmHg 90%
    08:00 +5°C° 0 mm 4 m/s 746 mmHg 87%
    09:00 +6°C° 0 mm 4 m/s 746 mmHg 83%
    10:00 +7°C° 0 mm 4 m/s 746 mmHg 79%
    11:00 +8°C° 0.1 mm 5 m/s 745 mmHg 80%
    12:00 +9°C° 0.1 mm 5 m/s 745 mmHg 81%
    13:00 +9°C° 0.1 mm 5 m/s 744 mmHg 82%
    14:00 +10°C° 0 mm 5 m/s 744 mmHg 81%
    15:00 +10°C° 0 mm 5 m/s 743 mmHg 80%
    16:00 +11°C° 0 mm 4 m/s 742 mmHg 78%
    17:00 +10°C° 0 mm 5 m/s 742 mmHg 77%
    18:00 +9°C° 0 mm 6 m/s 742 mmHg 76%
    19:00 +9°C° 0 mm 7 m/s 742 mmHg 75%
    20:00 +8°C° 0 mm 7 m/s 742 mmHg 74%
    21:00 +8°C° 0 mm 7 m/s 741 mmHg 73%
    22:00 +7°C° 0 mm 8 m/s 741 mmHg 73%
    23:00 +6°C° 0 mm 8 m/s 741 mmHg 72%

    27 Octobre, Samedi

    Heure Température Précipitation Vent Pression Humidité
    00:00 +6°C° 0 mm 8 m/s 742 mmHg 72%
    01:00 +6°C° 0 mm 8 m/s 742 mmHg 72%
    02:00 +5°C° 0 mm 8 m/s 742 mmHg 72%
    03:00 +5°C° 0 mm 8 m/s 742 mmHg 72%
    04:00 +4°C° 0 mm 8 m/s 743 mmHg 73%
    05:00 +4°C° 0 mm 8 m/s 743 mmHg 72%
    06:00 +4°C° 0 mm 8 m/s 744 mmHg 72%
    07:00 +4°C° 0 mm 8 m/s 744 mmHg 71%
    08:00 +5°C° 0 mm 8 m/s 744 mmHg 70%
    09:00 +5°C° 0 mm 8 m/s 745 mmHg 68%
    10:00 +5°C° 0 mm 8 m/s 745 mmHg 66%
    11:00 +5°C° 0 mm 7 m/s 746 mmHg 65%
    12:00 +6°C° 0 mm 7 m/s 746 mmHg 64%
    13:00 +7°C° 0 mm 6 m/s 746 mmHg 63%
    14:00 +7°C° 0 mm 5 m/s 746 mmHg 64%
    15:00 +7°C° 0 mm 4 m/s 747 mmHg 64%
    16:00 +7°C° 0 mm 3 m/s 747 mmHg 64%
    17:00 +7°C° 0 mm 3 m/s 747 mmHg 67%
    18:00 +6°C° 0 mm 2 m/s 748 mmHg 70%
    19:00 +6°C° 0 mm 2 m/s 749 mmHg 73%
    20:00 +7°C° 0 mm 1 m/s 749 mmHg 75%
    21:00 +6°C° 0 mm 1 m/s 749 mmHg 76%
    22:00 +6°C° 0 mm 1 m/s 749 mmHg 78%
    23:00 +6°C° 0 mm 1 m/s 749 mmHg 78%

    28 Octobre, Dimanche

    Heure Température Précipitation Vent Pression Humidité
    00:00 +6°C° 0 mm 1 m/s 749 mmHg 78%
    01:00 +6°C° 0 mm 1 m/s 749 mmHg 79%
    02:00 +6°C° 0 mm 1 m/s 750 mmHg 79%
    03:00 +4°C° 0 mm 2 m/s 750 mmHg 79%
    04:00 +4°C° 0 mm 2 m/s 750 mmHg 79%
    05:00 +4°C° 0 mm 2 m/s 750 mmHg 79%
    06:00 +4°C° 0 mm 2 m/s 750 mmHg 79%
    07:00 +3°C° 0 mm 3 m/s 751 mmHg 79%
    08:00 +4°C° 0.1 mm 3 m/s 751 mmHg 76%
    09:00 +4°C° 0.1 mm 3 m/s 751 mmHg 74%
    10:00 +5°C° 0.1 mm 4 m/s 751 mmHg 72%
    11:00 +5°C° 0.4 mm 4 m/s 751 mmHg 71%
    12:00 +5°C° 0.4 mm 5 m/s 750 mmHg 71%
    13:00 +5°C° 0.4 mm 5 m/s 750 mmHg 70%
    14:00 +4°C° 0.8 mm 6 m/s 750 mmHg 72%
    15:00 +3°C° 0.8 mm 6 m/s 750 mmHg 74%
    16:00 +3°C° 0.8 mm 6 m/s 750 mmHg 76%
    17:00 +3°C° 0.5 mm 7 m/s 750 mmHg 77%
    18:00 +3°C° 0.5 mm 7 m/s 750 mmHg 78%
    19:00 +3°C° 0.5 mm 7 m/s 750 mmHg 79%
    20:00 +2°C° 0.2 mm 8 m/s 749 mmHg 79%
    21:00 +2°C° 0.2 mm 8 m/s 749 mmHg 80%
    22:00 +2°C° 0.2 mm 8 m/s 749 mmHg 80%
    23:00 +2°C° 1.7 mm 8 m/s 748 mmHg 81%

    29 Octobre, Lundi

    Heure Température Précipitation Vent Pression Humidité
    00:00 +2°C° 1.7 mm 9 m/s 748 mmHg 82%
    01:00 +2°C° 1.7 mm 9 m/s 748 mmHg 82%
    02:00 +1°C° 1.5 mm 9 m/s 747 mmHg 82%
    03:00 +1°C° 1.5 mm 10 m/s 747 mmHg 82%
    04:00 +1°C° 1.5 mm 10 m/s 746 mmHg 82%
    05:00 +1°C° 1.3 mm 10 m/s 746 mmHg 83%
    06:00 +1°C° 1.3 mm 9 m/s 745 mmHg 83%
    07:00 +1°C° 1.3 mm 9 m/s 745 mmHg 84%
    08:00 +1°C° 1.1 mm 9 m/s 745 mmHg 84%
    09:00 +1°C° 1.1 mm 9 m/s 745 mmHg 85%
    10:00 +1°C° 1.1 mm 9 m/s 745 mmHg 85%
    11:00 +1°C° 1.4 mm 9 m/s 744 mmHg 86%
    12:00 +1°C° 1.4 mm 9 m/s 744 mmHg 87%
    13:00 +1°C° 1.4 mm 8 m/s 743 mmHg 88%
    14:00 +1°C° 1 mm 8 m/s 743 mmHg 88%
    15:00 +2°C° 1 mm 7 m/s 743 mmHg 89%
    16:00 +2°C° 1 mm 7 m/s 743 mmHg 89%
    17:00 +2°C° 0.3 mm 7 m/s 743 mmHg 90%
    18:00 +2°C° 0.3 mm 6 m/s 743 mmHg 90%
    19:00 +2°C° 0.3 mm 6 m/s 743 mmHg 91%
    20:00 +3°C° 0.1 mm 5 m/s 743 mmHg 91%
    21:00 +3°C° 0.1 mm 5 m/s 743 mmHg 92%
    22:00 +3°C° 0.1 mm 5 m/s 743 mmHg 92%
    23:00 +3°C° 0 mm 5 m/s 742 mmHg 93%
    Voir plus